Redwood Falls, MN

11:04 AM CST on February 12, 2016 (GMT -0600)
Redwood Falls Municipal

Weather History for KRWF - May, 2013

Change the Weather History Date:

Monday, May 20, 2013

  Actual Average Record
Temperature  
Mean Temperature 64 °F -  
Max Temperature 71 °F - - ()
Min Temperature 60 °F - - ()
Degree Days  
Heating Degree Days 1    
Growing Degree Days 14 (Base 50)    
Moisture  
Dew Point 58 °F    
Average Humidity 84    
Maximum Humidity 100    
Minimum Humidity 55    
Precipitation  
Precipitation 0.03 in - - ()
Sea Level Pressure  
Sea Level Pressure 29.49 in    
Wind  
Wind Speed 10 mph (SSE)    
Max Wind Speed 21 mph    
Max Gust Speed 32 mph    
Visibility 9 miles    
Events Rain    
T = Trace of Precipitation, MM = Missing Value Source: NWS Daily Summary

Daily Weather History Graph

Daily Weather History Graph

Search for Another Location

Airport or City:

Trip Planner

Search our weather history database for the weather conditions in past years. The results will help you decide how hot, cold, wet, or windy it might be!

Date:

Astronomy

May. 20, 2013 Rise Set
Actual Time 5:47 AM CDT 8:47 PM CDT
Civil Twilight 5:12 AM CDT 9:21 PM CDT
Nautical Twilight 4:28 AM CDT 10:06 PM CDT
Astronomical Twilight 3:36 AM CDT 10:59 PM CDT
Moon 3:45 PM CDT (5/20) 2:54 AM CDT (5/20)
Length of Visible Light 16h 09m
Length of Day
14h 59m
Waxing Gibbous, 75% of the Moon is Illuminated
May 20
Waxing Gibbous
May 24
Full
May 31
Last Quarter
Jun 8
New
Jun 16
First Quarter

Hourly Weather History & Observations

Time (CDT) Temp. Dew Point Humidity Pressure Visibility Wind Dir Wind Speed Gust Speed Precip Events Conditions
12:25 AM 62.6 °F 60.8 °F 94% 29.54 in 4.0 mi ENE 3.5 mph - N/A   Partly Cloudy
12:53 AM 62.1 °F 61.0 °F 96% 29.53 in 3.0 mi East 4.6 mph - N/A   Partly Cloudy
1:29 AM 62.6 °F 60.8 °F 94% 29.50 in 2.5 mi East 5.8 mph - N/A   Scattered Clouds
1:43 AM 62.6 °F 60.8 °F 94% 29.51 in 5.0 mi ESE 6.9 mph - N/A   Mostly Cloudy
1:53 AM 62.1 °F 61.0 °F 96% 29.50 in 6.0 mi ESE 5.8 mph - N/A   Mostly Cloudy
2:21 AM 62.6 °F 60.8 °F 94% 29.49 in 6.0 mi ESE 5.8 mph - N/A   Scattered Clouds
3:53 AM 62.1 °F 60.1 °F 93% 29.46 in 10.0 mi SSE 11.5 mph - 0.01 in Rain Light Rain
4:42 AM 62.6 °F 60.8 °F 94% 29.47 in 10.0 mi South 11.5 mph - 0.01 in Rain Light Rain
4:53 AM 62.1 °F 60.1 °F 93% 29.47 in 9.0 mi South 12.7 mph - 0.01 in Rain Light Rain
5:08 AM 62.6 °F 60.8 °F 94% 29.47 in 10.0 mi South 11.5 mph - 0.00 in Rain Light Rain
5:53 AM 62.1 °F 60.1 °F 93% 29.47 in 10.0 mi SSE 9.2 mph - 0.01 in   Overcast
6:29 AM 60.8 °F 60.8 °F 100% 29.48 in 9.0 mi SE 9.2 mph - N/A   Overcast
6:38 AM 62.6 °F 60.8 °F 94% 29.48 in 9.0 mi SSE 12.7 mph - N/A   Overcast
6:53 AM 62.1 °F 60.1 °F 93% 29.48 in 9.0 mi SSE 12.7 mph - N/A   Overcast
7:09 AM 62.6 °F 60.8 °F 94% 29.48 in 9.0 mi South 11.5 mph - N/A   Overcast
7:53 AM 62.1 °F 57.9 °F 86% 29.48 in 10.0 mi South 12.7 mph - N/A   Mostly Cloudy
9:53 AM 64.9 °F 57.0 °F 75% 29.48 in 10.0 mi South 18.4 mph 23.0 mph N/A   Mostly Cloudy
10:33 AM 66.2 °F 59.0 °F 78% 29.48 in 9.0 mi South 18.4 mph - N/A   Overcast
10:53 AM 64.9 °F 57.9 °F 78% 29.47 in 10.0 mi SSW 20.7 mph 25.3 mph N/A   Overcast
11:12 AM 64.4 °F 57.2 °F 77% 29.49 in 10.0 mi SSW 19.6 mph - N/A   Overcast
11:53 AM 64.9 °F 57.0 °F 75% 29.49 in 10.0 mi SW 18.4 mph - N/A   Overcast
12:34 PM 66.2 °F 57.2 °F 73% 29.50 in 10.0 mi South 12.7 mph - N/A   Overcast
1:53 PM 66.0 °F 55.0 °F 68% 29.51 in 10.0 mi SSW 18.4 mph 23.0 mph N/A   Overcast
2:53 PM 68.0 °F 54.0 °F 61% 29.50 in 10.0 mi SSW 13.8 mph - N/A   Overcast
4:53 PM 68.0 °F 53.1 °F 59% 29.50 in 10.0 mi SSW 15.0 mph 23.0 mph N/A   Overcast
5:53 PM 68.0 °F 51.1 °F 55% 29.50 in 10.0 mi SSW 19.6 mph 32.2 mph N/A   Overcast
6:53 PM 66.9 °F 54.0 °F 63% 29.50 in 10.0 mi South 10.4 mph - N/A   Overcast
7:53 PM 64.0 °F 55.0 °F 73% 29.50 in 10.0 mi South 13.8 mph 20.7 mph N/A   Overcast
9:53 PM 60.1 °F 55.9 °F 86% 29.51 in 10.0 mi SE 11.5 mph - N/A   Overcast
10:53 PM 60.1 °F 57.0 °F 90% 29.49 in 10.0 mi SE 6.9 mph - N/A   Overcast
11:53 PM 60.1 °F 57.0 °F 90% 29.49 in 10.0 mi ESE 4.6 mph - N/A   Overcast